Fox Island, WA

10:49 AM PDT on August 28, 2016 (GMT -0700)
Tacoma Narrows

Weather History for KTIW - January, 2013

Change the Weather History Date:

Saturday, January 26, 2013

  Actual Average Record
Temperature  
Mean Temperature 42 °F -  
Max Temperature 46 °F 45 °F 61 °F (2015)
Min Temperature 39 °F 37 °F 12 °F (1997)
Degree Days  
Heating Degree Days 22    
Moisture  
Dew Point 37 °F    
Average Humidity 81    
Maximum Humidity 87    
Minimum Humidity 68    
Precipitation  
Precipitation 0.05 in - - ()
Sea Level Pressure  
Sea Level Pressure 29.95 in    
Wind  
Wind Speed 7 mph (South)    
Max Wind Speed 16 mph    
Max Gust Speed 23 mph    
Visibility 10 miles    
Events Rain    
Averages and records for this station are not official NWS values.
T = Trace of Precipitation, MM = Missing Value Source: NWS Daily Summary

Daily Weather History Graph

Daily Weather History Graph

Search for Another Location

Airport or City:

Trip Planner

Search our weather history database for the weather conditions in past years. The results will help you decide how hot, cold, wet, or windy it might be!

Date:

Astronomy

Jan. 26, 2013 Rise Set
Actual Time 7:42 AM PST 5:03 PM PST
Civil Twilight 7:09 AM PST 5:37 PM PST
Nautical Twilight 6:32 AM PST 6:14 PM PST
Astronomical Twilight 5:56 AM PST 6:50 PM PST
Moon 5:07 PM PST (1/26) 7:01 AM PST (1/26)
Length of Visible Light 10h 27m
Length of Day
9h 21m
Full, 100% of the Moon is Illuminated
Jan 26
Full
Jan 26
Full
Feb 3
Last Quarter
Feb 9
New
Feb 17
First Quarter

Hourly Weather History & Observations

Time (PST) Temp. Windchill Dew Point Humidity Pressure Visibility Wind Dir Wind Speed Gust Speed Precip Events Conditions
12:38 AM 42.8 °F 40.1 °F 35.6 °F 76% 29.92 in 10.0 mi SSW 4.6 mph - N/A   Mostly Cloudy
12:50 AM 41.0 °F 39.0 °F 35.6 °F 81% 29.91 in 10.0 mi SSE 3.5 mph - N/A   Scattered Clouds
12:53 AM 42.1 °F 40.2 °F 37.0 °F 82% 29.92 in 10.0 mi SSE 3.5 mph - N/A   Partly Cloudy
1:53 AM 41.0 °F 39.0 °F 37.0 °F 86% 29.91 in 10.0 mi SSE 3.5 mph - N/A   Overcast
2:53 AM 41.0 °F 38.0 °F 37.0 °F 86% 29.91 in 10.0 mi SSE 4.6 mph - N/A   Overcast
3:36 AM 39.2 °F 37.0 °F 35.6 °F 87% 29.89 in 10.0 mi South 3.5 mph - 0.01 in Rain Light Rain
3:53 AM 41.0 °F 39.0 °F 36.0 °F 82% 29.89 in 10.0 mi SSE 3.5 mph - 0.01 in Rain Light Rain
4:01 AM 39.2 °F 35.9 °F 35.6 °F 87% 29.88 in 10.0 mi SSE 4.6 mph - 0.01 in Rain Light Rain
4:45 AM 39.2 °F 34.2 °F 35.6 °F 87% 29.88 in 10.0 mi South 6.9 mph - 0.02 in   Overcast
4:53 AM 39.9 °F 33.9 °F 36.0 °F 86% 29.89 in 10.0 mi South 9.2 mph - 0.02 in   Overcast
5:53 AM 41.0 °F 35.2 °F 37.0 °F 86% 29.89 in 10.0 mi South 9.2 mph - N/A   Overcast
6:53 AM 41.0 °F 34.7 °F 37.0 °F 86% 29.89 in 10.0 mi South 10.4 mph - N/A   Overcast
7:24 AM 42.8 °F 36.6 °F 37.4 °F 81% 29.89 in 10.0 mi South 11.5 mph - 0.01 in Rain Light Rain
7:53 AM 42.1 °F 34.2 °F 37.0 °F 82% 29.90 in 10.0 mi South 16.1 mph 20.7 mph 0.01 in Rain Light Rain
8:53 AM 43.0 °F 36.8 °F 37.0 °F 80% 29.92 in 10.0 mi South 11.5 mph 20.7 mph 0.01 in   Mostly Cloudy
9:53 AM 43.0 °F 35.4 °F 37.0 °F 80% 29.94 in 10.0 mi South 16.1 mph 23.0 mph N/A   Mostly Cloudy
10:53 AM 44.1 °F 36.8 °F 37.0 °F 76% 29.95 in 10.0 mi South 16.1 mph 21.9 mph N/A   Mostly Cloudy
11:53 AM 46.0 °F 39.9 °F 37.0 °F 71% 29.95 in 10.0 mi South 13.8 mph 23.0 mph N/A   Mostly Cloudy
12:53 PM 46.9 °F - 37.9 °F 71% 29.94 in 10.0 mi SSW 11.5 mph 20.7 mph N/A   Overcast
1:53 PM 46.0 °F 41.0 °F 37.0 °F 71% 29.94 in 10.0 mi South 10.4 mph - N/A   Scattered Clouds
2:53 PM 46.0 °F 41.0 °F 36.0 °F 68% 29.94 in 10.0 mi South 10.4 mph - N/A   Scattered Clouds
3:53 PM 44.1 °F 37.4 °F 35.1 °F 71% 29.95 in 10.0 mi South 13.8 mph - N/A   Scattered Clouds
4:00 PM 44.6 °F 39.2 °F 35.6 °F 71% 29.94 in 10.0 mi South 10.4 mph 18.4 mph N/A   Overcast
4:53 PM 43.0 °F 36.8 °F 37.0 °F 80% 29.96 in 10.0 mi South 11.5 mph - N/A   Overcast
5:53 PM 42.1 °F 36.6 °F 37.0 °F 82% 29.98 in 10.0 mi South 9.2 mph - N/A   Overcast
6:53 PM 42.1 °F 37.7 °F 37.9 °F 85% 29.99 in 10.0 mi South 6.9 mph - N/A   Mostly Cloudy
7:00 PM 42.8 °F 38.6 °F 37.4 °F 81% 29.98 in 10.0 mi SSW 6.9 mph - N/A   Overcast
7:19 PM 41.0 °F 35.8 °F 37.4 °F 87% 29.99 in 10.0 mi South 8.1 mph - N/A   Overcast
7:37 PM 41.0 °F 35.2 °F 37.4 °F 87% 29.99 in 10.0 mi South 9.2 mph - N/A   Overcast
7:48 PM 41.0 °F 35.2 °F 37.4 °F 87% 30.00 in 10.0 mi South 9.2 mph - N/A   Mostly Cloudy
7:53 PM 41.0 °F 35.8 °F 37.0 °F 86% 30.01 in 10.0 mi South 8.1 mph - N/A   Mostly Cloudy
8:08 PM 41.0 °F 35.2 °F 35.6 °F 81% 30.00 in 10.0 mi South 9.2 mph - N/A   Scattered Clouds
8:18 PM 41.0 °F 35.8 °F 35.6 °F 81% 30.00 in 10.0 mi SSW 8.1 mph - N/A   Mostly Cloudy
8:53 PM 41.0 °F 36.4 °F 37.0 °F 86% 30.02 in 10.0 mi South 6.9 mph - N/A   Overcast
9:53 PM 41.0 °F 35.2 °F 37.0 °F 86% 30.02 in 10.0 mi South 9.2 mph - N/A   Overcast
10:53 PM 41.0 °F 35.8 °F 37.0 °F 86% 30.04 in 10.0 mi SSW 8.1 mph - N/A   Overcast
11:53 PM 41.0 °F 35.8 °F 37.0 °F 86% 30.04 in 10.0 mi South 8.1 mph - N/A   Overcast